AFR7MP LPPR-EDDL

Flight info

Callsign AFR7MP
Flight time 2h 23m
Altitude 36000
Route TURON P600 ASDEB DCT LOTEE DCT AZFIC UN741 NTS DCT GONEK DCT TABOV UN858 OQQAL DCT RANUX/N0433F370 DCT VALEK DCT LUTAX DCT DIK/N0363F230 N853 ARCKY T853 NVO T857 BIKMU BIKMU1A
Aircraft A320/M-SDE3FGHIRWY/LB1

Departure

Time 2026-05-04 17:22
Airport Francisco de Sá Carneiro Airport (LPPR)

Arrival

Time 2026-05-04 19:45
Airport Düsseldorf Airport (EDDL)
Time Latitude Longitude Altitude Speed Heading
2026-05-04 16:46 41.23732 -8.67264 243 ft 0 kts 69°
2026-05-04 16:47 41.23460 -8.67476 239 ft 0 kts 259°
2026-05-04 17:10 41.23460 -8.67474 214 ft 2 kts 258°
2026-05-04 17:11 41.23468 -8.67441 214 ft 4 kts 240°
2026-05-04 17:11 41.23484 -8.67413 240 ft 4 kts 214°
2026-05-04 17:11 41.23530 -8.67399 237 ft 1 kts 169°
2026-05-04 17:14 41.23528 -8.67399 237 ft 5 kts 168°
2026-05-04 17:15 41.23447 -8.67378 237 ft 12 kts 169°
2026-05-04 17:15 41.23332 -8.67437 236 ft 10 kts 257°
2026-05-04 17:16 41.23319 -8.67523 236 ft 0 kts 258°
2026-05-04 17:16 41.23306 -8.67608 237 ft 0 kts 259°
2026-05-04 17:17 41.23305 -8.67611 237 ft 3 kts 259°
2026-05-04 17:18 41.23297 -8.67669 239 ft 5 kts 263°
2026-05-04 17:18 41.23324 -8.67734 239 ft 7 kts 333°
2026-05-04 17:19 41.23357 -8.67746 239 ft 0 kts 348°
2026-05-04 17:21 41.23763 -8.67852 224 ft 89 kts 350°
2026-05-04 17:21 41.25677 -8.68360 323 ft 174 kts 346°
2026-05-04 17:22 41.26844 -8.68689 1087 ft 171 kts 345°
2026-05-04 17:22 41.27998 -8.69000 1911 ft 168 kts 347°
2026-05-04 17:23 41.32061 -8.70075 2843 ft 238 kts 346°
2026-05-04 17:23 41.33755 -8.70544 3322 ft 256 kts 346°
2026-05-04 17:23 41.37233 -8.71459 5170 ft 258 kts 346°
2026-05-04 17:24 41.38406 -8.71763 5744 ft 259 kts 346°
2026-05-04 17:24 41.43954 -8.72399 7983 ft 282 kts
2026-05-04 17:25 41.45887 -8.71799 8703 ft 289 kts
2026-05-04 17:25 41.49889 -8.70805 10191 ft 297 kts
2026-05-04 17:26 41.54231 -8.69768 10762 ft 337 kts
2026-05-04 17:26 41.61321 -8.67995 12779 ft 351 kts
2026-05-04 17:27 41.66164 -8.66750 14133 ft 357 kts
2026-05-04 17:27 41.71096 -8.65494 15321 ft 364 kts
2026-05-04 17:28 41.76122 -8.64214 16505 ft 371 kts
2026-05-04 17:29 41.83833 -8.62242 18266 ft 381 kts
2026-05-04 17:29 41.91740 -8.60218 19742 ft 390 kts
2026-05-04 17:30 41.99830 -8.58147 21210 ft 399 kts
2026-05-04 17:31 42.05282 -8.56741 22125 ft 404 kts
2026-05-04 17:31 42.13670 -8.55080 23437 ft 411 kts
2026-05-04 17:32 42.19391 -8.54302 24199 ft 416 kts
2026-05-04 17:33 42.28101 -8.52990 25211 ft 424 kts
2026-05-04 17:33 42.31036 -8.52513 25556 ft 426 kts
2026-05-04 17:34 42.39936 -8.51061 26580 ft 433 kts
2026-05-04 17:34 42.42888 -8.50588 26912 ft 435 kts
2026-05-04 17:35 42.51820 -8.47771 27861 ft 452 kts 23°
2026-05-04 17:35 42.57018 -8.42802 28460 ft 463 kts 38°
2026-05-04 17:35 42.59451 -8.39913 28775 ft 466 kts 38°
2026-05-04 17:36 42.61898 -8.37014 29080 ft 468 kts 38°
2026-05-04 17:36 42.64359 -8.34095 29353 ft 471 kts 38°
2026-05-04 17:36 42.66833 -8.31162 29657 ft 473 kts 38°
2026-05-04 17:36 42.69317 -8.28214 29922 ft 475 kts 38°
2026-05-04 17:37 42.71815 -8.25246 30185 ft 478 kts 38°
2026-05-04 17:37 42.74321 -8.22264 30400 ft 480 kts 39°
2026-05-04 17:37 42.76837 -8.19268 30638 ft 482 kts 39°
2026-05-04 17:37 42.79361 -8.16254 30866 ft 483 kts 39°
2026-05-04 17:38 42.81881 -8.13241 31183 ft 482 kts 39°
2026-05-04 17:38 42.84396 -8.10232 31518 ft 481 kts 39°
2026-05-04 17:38 42.86914 -8.07216 31850 ft 480 kts 39°
2026-05-04 17:38 42.89424 -8.04210 32172 ft 480 kts 39°
2026-05-04 17:39 42.94426 -7.98208 32804 ft 479 kts 39°
2026-05-04 17:39 42.96918 -7.95206 33118 ft 478 kts 39°
2026-05-04 17:39 42.99379 -7.92235 33435 ft 477 kts 39°
2026-05-04 17:40 43.01860 -7.89242 33760 ft 476 kts 39°
2026-05-04 17:40 43.04344 -7.86247 34068 ft 476 kts 39°
2026-05-04 17:40 43.06826 -7.83254 34330 ft 475 kts 39°
2026-05-04 17:40 43.09300 -7.80266 34583 ft 474 kts 39°
2026-05-04 17:41 43.11773 -7.77274 34825 ft 474 kts 39°
2026-05-04 17:41 43.14241 -7.74285 35060 ft 473 kts 39°
2026-05-04 17:41 43.16705 -7.71295 35275 ft 473 kts 39°
2026-05-04 17:41 43.19167 -7.68303 35495 ft 473 kts 39°
2026-05-04 17:42 43.21626 -7.65312 35711 ft 472 kts 39°
2026-05-04 17:42 43.24076 -7.62325 35926 ft 472 kts 40°
2026-05-04 17:42 43.26528 -7.59332 36034 ft 472 kts 40°
2026-05-04 17:42 43.28973 -7.56342 36064 ft 470 kts 40°
2026-05-04 17:43 43.33847 -7.50380 36058 ft 468 kts 40°
2026-05-04 17:43 43.38713 -7.44426 36053 ft 468 kts 40°
2026-05-04 17:44 43.43539 -7.38496 36052 ft 468 kts 40°
2026-05-04 17:44 43.48397 -7.32523 36051 ft 469 kts 40°
2026-05-04 17:45 43.53264 -7.26529 36056 ft 469 kts 40°
2026-05-04 17:45 43.58119 -7.20529 36057 ft 469 kts 40°
2026-05-04 17:46 43.62961 -7.14520 36051 ft 468 kts 40°
2026-05-04 17:46 43.67804 -7.08505 36052 ft 468 kts 40°
2026-05-04 17:47 43.72640 -7.02484 36048 ft 468 kts 40°
2026-05-04 17:47 43.77468 -6.96464 36046 ft 467 kts 40°
2026-05-04 17:48 43.82267 -6.90471 36047 ft 467 kts 41°
2026-05-04 17:48 43.87085 -6.84435 36043 ft 467 kts 41°
2026-05-04 17:49 43.91905 -6.78385 36043 ft 467 kts 41°
2026-05-04 17:49 43.96714 -6.72333 36043 ft 467 kts 41°
2026-05-04 17:50 44.01516 -6.66271 36039 ft 466 kts 41°
2026-05-04 17:50 44.06314 -6.60199 36033 ft 466 kts 41°
2026-05-04 17:51 44.11106 -6.54127 36032 ft 466 kts 41°
2026-05-04 17:51 44.15894 -6.48037 36029 ft 466 kts 41°
2026-05-04 17:52 44.20673 -6.41945 36032 ft 466 kts 41°
2026-05-04 17:52 44.25456 -6.35859 36031 ft 466 kts 41°
2026-05-04 17:53 44.30233 -6.29751 36028 ft 465 kts 42°
2026-05-04 17:53 44.34970 -6.23669 36029 ft 465 kts 42°
2026-05-04 17:54 44.39735 -6.17544 36030 ft 465 kts 42°
2026-05-04 17:54 44.44501 -6.11417 36029 ft 465 kts 42°
2026-05-04 17:55 44.49254 -6.05283 36025 ft 465 kts 42°
2026-05-04 17:55 44.53998 -5.99134 36025 ft 464 kts 42°
2026-05-04 17:56 44.58736 -5.92988 36024 ft 464 kts 42°
2026-05-04 17:56 44.63445 -5.86871 36023 ft 464 kts 42°
2026-05-04 17:57 44.68160 -5.80680 36021 ft 464 kts 43°
2026-05-04 17:57 44.72778 -5.74354 36024 ft 464 kts 44°
2026-05-04 17:58 44.77364 -5.67975 36019 ft 463 kts 44°
2026-05-04 17:58 44.81965 -5.61624 36022 ft 463 kts 44°
2026-05-04 17:59 44.86576 -5.55295 36029 ft 463 kts 44°
2026-05-04 18:00 44.93471 -5.45779 36028 ft 462 kts 45°
2026-05-04 18:00 44.98053 -5.39419 36024 ft 461 kts 45°
2026-05-04 18:01 45.02634 -5.33071 36019 ft 461 kts 45°
2026-05-04 18:01 45.07207 -5.26712 36013 ft 461 kts 45°
2026-05-04 18:02 45.14059 -5.17140 36001 ft 461 kts 45°
2026-05-04 18:02 45.18616 -5.10750 36001 ft 461 kts 45°
2026-05-04 18:03 45.23171 -5.04346 36010 ft 461 kts 45°
2026-05-04 18:03 45.27731 -4.97941 36006 ft 461 kts 45°
2026-05-04 18:04 45.32284 -4.91531 36007 ft 461 kts 45°
2026-05-04 18:05 45.39097 -4.81879 36012 ft 461 kts 46°
2026-05-04 18:05 45.43641 -4.75434 36012 ft 461 kts 46°
2026-05-04 18:06 45.50439 -4.65762 36013 ft 460 kts 46°
2026-05-04 18:06 45.54960 -4.59297 36011 ft 460 kts 46°
2026-05-04 18:07 45.59452 -4.52864 36006 ft 460 kts 46°
2026-05-04 18:07 45.63966 -4.46388 36006 ft 460 kts 46°
2026-05-04 18:08 45.68474 -4.39903 36007 ft 460 kts 46°
2026-05-04 18:08 45.72979 -4.33416 36005 ft 459 kts 46°
2026-05-04 18:09 45.81964 -4.20404 36001 ft 459 kts 46°
2026-05-04 18:10 45.86443 -4.13896 35999 ft 458 kts 46°
2026-05-04 18:10 45.90917 -4.07381 35996 ft 458 kts 47°
2026-05-04 18:11 45.95389 -4.00863 35996 ft 458 kts 47°
2026-05-04 18:11 45.99851 -3.94343 35997 ft 457 kts 47°
2026-05-04 18:12 46.03569 -3.88890 35992 ft 457 kts 47°
2026-05-04 18:12 46.08018 -3.82340 35991 ft 457 kts 47°
2026-05-04 18:13 46.12472 -3.75785 35993 ft 457 kts 47°
2026-05-04 18:14 46.19145 -3.65935 35992 ft 458 kts 47°
2026-05-04 18:14 46.23557 -3.59386 35993 ft 458 kts 47°
2026-05-04 18:15 46.32423 -3.46193 35987 ft 457 kts 47°
2026-05-04 18:16 46.36857 -3.39580 35987 ft 457 kts 47°
2026-05-04 18:16 46.41282 -3.32952 35985 ft 458 kts 47°
2026-05-04 18:17 46.47911 -3.22987 35991 ft 457 kts 47°
2026-05-04 18:18 46.54535 -3.13018 35990 ft 457 kts 47°
2026-05-04 18:18 46.58387 -3.05760 35987 ft 453 kts 62°
2026-05-04 18:19 46.63150 -2.93886 35986 ft 453 kts 62°
2026-05-04 18:19 46.66329 -2.85968 35988 ft 453 kts 62°
2026-05-04 18:20 46.69501 -2.78046 35982 ft 452 kts 62°
2026-05-04 18:20 46.72657 -2.70123 35983 ft 452 kts 62°
2026-05-04 18:21 46.75808 -2.62185 35977 ft 452 kts 62°
2026-05-04 18:21 46.78946 -2.54246 35974 ft 452 kts 62°
2026-05-04 18:22 46.82084 -2.46289 35973 ft 452 kts 62°
2026-05-04 18:22 46.85212 -2.38321 35972 ft 452 kts 62°
2026-05-04 18:23 46.88409 -2.30397 35972 ft 453 kts 60°
2026-05-04 18:23 46.91756 -2.22573 35972 ft 454 kts 60°
2026-05-04 18:24 46.95115 -2.14756 35969 ft 454 kts 60°
2026-05-04 18:24 46.98425 -2.06889 35965 ft 454 kts 61°
2026-05-04 18:25 47.01677 -1.99034 35962 ft 454 kts 62°
2026-05-04 18:25 47.04798 -1.91007 35959 ft 454 kts 63°
2026-05-04 18:26 47.07822 -1.82984 35958 ft 454 kts 64°
2026-05-04 18:26 47.10891 -1.74885 35960 ft 454 kts 63°
2026-05-04 18:27 47.13987 -1.66788 35962 ft 455 kts 63°
2026-05-04 18:27 47.17121 -1.58717 35963 ft 456 kts 62°
2026-05-04 18:28 47.20581 -1.50883 35961 ft 457 kts 58°
2026-05-04 18:28 47.24192 -1.43170 35955 ft 458 kts 58°
2026-05-04 18:29 47.27746 -1.35393 35949 ft 458 kts 59°
2026-05-04 18:29 47.31237 -1.27550 35945 ft 458 kts 60°
2026-05-04 18:30 47.36450 -1.15742 36060 ft 458 kts 60°
2026-05-04 18:30 47.38187 -1.11817 36308 ft 456 kts 60°
2026-05-04 18:31 47.39922 -1.07897 36558 ft 455 kts 59°
2026-05-04 18:31 47.41648 -1.03994 36810 ft 454 kts 59°
2026-05-04 18:31 47.43374 -1.00089 36920 ft 456 kts 59°
2026-05-04 18:32 47.46850 -0.92181 36941 ft 460 kts 59°
2026-05-04 18:32 47.50338 -0.84232 36939 ft 461 kts 59°
2026-05-04 18:33 47.53816 -0.76266 36943 ft 461 kts 59°
2026-05-04 18:33 47.57259 -0.68354 36946 ft 461 kts 60°
2026-05-04 18:34 47.60734 -0.60367 36945 ft 461 kts 60°
2026-05-04 18:34 47.64206 -0.52369 36948 ft 462 kts 60°
2026-05-04 18:35 47.67672 -0.44346 36951 ft 462 kts 60°
2026-05-04 18:35 47.71141 -0.36317 36952 ft 462 kts 60°
2026-05-04 18:36 47.74605 -0.28273 36951 ft 462 kts 60°
2026-05-04 18:36 47.78060 -0.20204 36949 ft 463 kts 60°
2026-05-04 18:37 47.81464 -0.12222 36950 ft 463 kts 60°
2026-05-04 18:37 47.84912 -0.04127 36951 ft 463 kts 60°
2026-05-04 18:38 47.88331 0.03917 36950 ft 463 kts 60°
2026-05-04 18:38 47.91736 0.11958 36953 ft 464 kts 60°
2026-05-04 18:39 47.95146 0.20036 36950 ft 464 kts 60°
2026-05-04 18:39 47.98582 0.28201 36950 ft 464 kts 60°
2026-05-04 18:40 48.02016 0.36367 36950 ft 464 kts 60°
2026-05-04 18:40 48.05443 0.44552 36948 ft 465 kts 60°
2026-05-04 18:41 48.08863 0.52763 36946 ft 465 kts 60°
2026-05-04 18:41 48.12273 0.60988 36945 ft 465 kts 61°
2026-05-04 18:42 48.15475 0.69388 36942 ft 464 kts 64°
2026-05-04 18:42 48.18513 0.77929 36943 ft 464 kts 64°
2026-05-04 18:43 48.21531 0.86411 36944 ft 465 kts 64°
2026-05-04 18:43 48.24619 0.94926 36943 ft 465 kts 63°
2026-05-04 18:44 48.27690 1.03374 36942 ft 465 kts 64°
2026-05-04 18:44 48.30776 1.11904 36940 ft 465 kts 64°
2026-05-04 18:45 48.33850 1.20453 36937 ft 465 kts 64°
2026-05-04 18:45 48.36919 1.29025 36937 ft 465 kts 64°
2026-05-04 18:46 48.39984 1.37593 36937 ft 465 kts 64°
2026-05-04 18:46 48.43044 1.46192 36937 ft 466 kts 64°
2026-05-04 18:47 48.46093 1.54797 36937 ft 466 kts 64°
2026-05-04 18:47 48.49137 1.63411 36936 ft 466 kts 64°
2026-05-04 18:48 48.52184 1.72029 36937 ft 466 kts 64°
2026-05-04 18:48 48.55219 1.80646 36942 ft 466 kts 64°
2026-05-04 18:49 48.58244 1.89294 36944 ft 466 kts 64°
2026-05-04 18:49 48.61238 1.97878 36946 ft 466 kts 64°
2026-05-04 18:50 48.64256 2.06550 36950 ft 466 kts 64°
2026-05-04 18:50 48.67177 2.14979 36951 ft 466 kts 64°
2026-05-04 18:51 48.70180 2.23672 36951 ft 466 kts 64°
2026-05-04 18:51 48.73182 2.32364 36952 ft 466 kts 64°
2026-05-04 18:52 48.76174 2.41067 36952 ft 466 kts 64°
2026-05-04 18:52 48.79160 2.49791 36947 ft 466 kts 64°
2026-05-04 18:53 48.82137 2.58517 36945 ft 466 kts 64°
2026-05-04 18:53 48.85106 2.67256 36946 ft 466 kts 65°
2026-05-04 18:54 48.87176 2.76501 36944 ft 462 kts 78°
2026-05-04 18:54 48.88809 2.85941 36941 ft 462 kts 77°
2026-05-04 18:55 48.90414 2.95101 36942 ft 462 kts 77°
2026-05-04 18:55 48.92843 3.09103 36940 ft 462 kts 77°
2026-05-04 18:56 48.94220 3.17126 36949 ft 462 kts 78°
2026-05-04 18:56 48.95839 3.26586 36942 ft 462 kts 78°
2026-05-04 18:57 48.97445 3.36038 36942 ft 462 kts 78°
2026-05-04 18:57 48.99046 3.45527 36943 ft 462 kts 78°
2026-05-04 18:58 49.00633 3.55011 36941 ft 462 kts 78°
2026-05-04 18:58 49.02211 3.64489 36946 ft 462 kts 78°
2026-05-04 18:59 49.03785 3.73967 36938 ft 462 kts 78°
2026-05-04 18:59 49.05332 3.83337 36954 ft 462 kts 78°
2026-05-04 19:00 49.06891 3.92823 36950 ft 461 kts 78°
2026-05-04 19:00 49.08433 4.02265 36950 ft 461 kts 78°
2026-05-04 19:01 49.09984 4.11830 36952 ft 461 kts 79°
2026-05-04 19:01 49.11510 4.21338 36956 ft 462 kts 79°
2026-05-04 19:02 49.13021 4.30795 36948 ft 462 kts 79°
2026-05-04 19:02 49.14963 4.40155 36944 ft 465 kts 69°
2026-05-04 19:03 49.17471 4.49322 36947 ft 465 kts 69°
2026-05-04 19:03 49.19935 4.58401 36949 ft 465 kts 70°
2026-05-04 19:04 49.22394 4.67545 36952 ft 465 kts 70°
2026-05-04 19:04 49.24841 4.76670 36960 ft 465 kts 70°
2026-05-04 19:05 49.27289 4.85830 36966 ft 465 kts 70°
2026-05-04 19:05 49.29734 4.94999 36963 ft 465 kts 70°
2026-05-04 19:06 49.32172 5.04172 36967 ft 464 kts 70°
2026-05-04 19:06 49.34599 5.13348 36973 ft 464 kts 70°
2026-05-04 19:07 49.37012 5.22529 36973 ft 464 kts 70°
2026-05-04 19:07 49.39390 5.31620 36973 ft 463 kts 70°
2026-05-04 19:08 49.41787 5.40809 36969 ft 463 kts 71°
2026-05-04 19:08 49.44180 5.49991 36973 ft 463 kts 71°
2026-05-04 19:09 49.46571 5.59190 36973 ft 463 kts 71°
2026-05-04 19:09 49.48949 5.68406 36653 ft 463 kts 71°
2026-05-04 19:10 49.50234 5.72860 36165 ft 466 kts 63°
2026-05-04 19:10 49.52025 5.77017 35658 ft 467 kts 52°
2026-05-04 19:10 49.54222 5.80558 35170 ft 468 kts 41°
2026-05-04 19:10 49.56794 5.83600 34680 ft 466 kts 36°
2026-05-04 19:11 49.59461 5.86429 34206 ft 464 kts 34°
2026-05-04 19:11 49.62132 5.89085 33695 ft 462 kts 33°
2026-05-04 19:11 49.64798 5.91653 33157 ft 460 kts 33°
2026-05-04 19:11 49.67493 5.94236 32618 ft 458 kts 33°
2026-05-04 19:12 49.70149 5.96813 32089 ft 456 kts 33°
2026-05-04 19:12 49.75494 6.02144 31063 ft 452 kts 35°
2026-05-04 19:12 49.78104 6.04795 30643 ft 448 kts 35°
2026-05-04 19:13 49.80741 6.07485 30283 ft 463 kts 35°
2026-05-04 19:13 49.83439 6.09983 29912 ft 475 kts 26°
2026-05-04 19:13 49.86519 6.11843 29485 ft 476 kts 15°
2026-05-04 19:13 49.89747 6.12826 29063 ft 472 kts
2026-05-04 19:14 49.92924 6.12996 28661 ft 468 kts 358°
2026-05-04 19:14 49.96171 6.13004 28245 ft 464 kts 358°
2026-05-04 19:14 49.99387 6.13027 27846 ft 461 kts 358°
2026-05-04 19:14 50.02576 6.13056 27448 ft 457 kts 358°
2026-05-04 19:15 50.05747 6.13082 27060 ft 454 kts 358°
2026-05-04 19:15 50.08893 6.13100 26673 ft 450 kts 358°
2026-05-04 19:15 50.12014 6.13115 26293 ft 447 kts 358°
2026-05-04 19:15 50.15107 6.13130 25916 ft 443 kts 358°
2026-05-04 19:16 50.18182 6.13149 25531 ft 439 kts 358°
2026-05-04 19:16 50.21222 6.13170 25176 ft 436 kts 358°
2026-05-04 19:16 50.24246 6.13189 24813 ft 433 kts 358°
2026-05-04 19:16 50.27241 6.13458 24456 ft 431 kts
2026-05-04 19:17 50.30099 6.14498 24108 ft 430 kts 17°
2026-05-04 19:17 50.32845 6.16334 23755 ft 428 kts 28°
2026-05-04 19:17 50.35362 6.18793 23389 ft 425 kts 33°
2026-05-04 19:17 50.37822 6.21327 22966 ft 422 kts 33°
2026-05-04 19:18 50.40268 6.23846 22566 ft 419 kts 33°
2026-05-04 19:18 50.42695 6.26341 22175 ft 416 kts 33°
2026-05-04 19:18 50.45100 6.28815 21787 ft 412 kts 33°
2026-05-04 19:18 50.47485 6.31273 21388 ft 408 kts 33°
2026-05-04 19:19 50.49838 6.33694 21003 ft 402 kts 33°
2026-05-04 19:19 50.52192 6.36026 20625 ft 397 kts 31°
2026-05-04 19:19 50.54553 6.38217 20240 ft 392 kts 30°
2026-05-04 19:19 50.56906 6.40320 19878 ft 387 kts 30°
2026-05-04 19:20 50.59235 6.42384 19516 ft 382 kts 30°
2026-05-04 19:20 50.61537 6.44440 19157 ft 378 kts 30°
2026-05-04 19:20 50.63808 6.46496 18799 ft 374 kts 30°
2026-05-04 19:20 50.66038 6.48542 18448 ft 371 kts 31°
2026-05-04 19:21 50.68250 6.50587 18066 ft 363 kts 31°
2026-05-04 19:21 50.70386 6.52569 17662 ft 349 kts 31°
2026-05-04 19:21 50.72445 6.54482 17267 ft 337 kts 31°
2026-05-04 19:21 50.74358 6.56262 16894 ft 327 kts 31°
2026-05-04 19:22 50.76319 6.58091 16506 ft 318 kts 31°
2026-05-04 19:22 50.78198 6.59843 16115 ft 310 kts 31°
2026-05-04 19:22 50.80031 6.61543 15736 ft 302 kts 29°
2026-05-04 19:22 50.81859 6.62913 15377 ft 296 kts 20°
2026-05-04 19:23 50.83814 6.63879 15006 ft 295 kts 12°
2026-05-04 19:23 50.85849 6.64426 14648 ft 298 kts
2026-05-04 19:23 50.87911 6.64859 14287 ft 300 kts
2026-05-04 19:23 50.89898 6.65284 13935 ft 296 kts
2026-05-04 19:24 50.91859 6.65703 13569 ft 290 kts
2026-05-04 19:24 50.93843 6.66126 13172 ft 287 kts
2026-05-04 19:24 50.95816 6.66547 12777 ft 285 kts
2026-05-04 19:24 50.97779 6.66970 12386 ft 284 kts
2026-05-04 19:25 50.99689 6.67388 12004 ft 282 kts
2026-05-04 19:25 51.01623 6.67813 11629 ft 280 kts
2026-05-04 19:25 51.03556 6.68235 11252 ft 279 kts
2026-05-04 19:25 51.05464 6.68651 10987 ft 273 kts
2026-05-04 19:26 51.07345 6.69058 10970 ft 273 kts
2026-05-04 19:26 51.09224 6.69463 10971 ft 273 kts
2026-05-04 19:26 51.11112 6.69870 10975 ft 273 kts
2026-05-04 19:26 51.12969 6.70250 10972 ft 273 kts
2026-05-04 19:27 51.14846 6.69814 10975 ft 270 kts 338°
2026-05-04 19:27 51.16549 6.68682 10977 ft 269 kts 334°
2026-05-04 19:27 51.18215 6.67461 10976 ft 269 kts 333°
2026-05-04 19:27 51.19908 6.66198 10975 ft 268 kts 333°
2026-05-04 19:28 51.21594 6.64929 10974 ft 268 kts 333°
2026-05-04 19:28 51.23278 6.63670 10972 ft 268 kts 337°
2026-05-04 19:28 51.25111 6.63174 10976 ft 267 kts
2026-05-04 19:28 51.26944 6.63657 10972 ft 268 kts 12°
2026-05-04 19:29 51.28765 6.64304 10979 ft 268 kts 13°
2026-05-04 19:29 51.30577 6.64967 10971 ft 267 kts 13°
2026-05-04 19:29 51.32389 6.65632 10976 ft 267 kts 13°
2026-05-04 19:29 51.34202 6.66300 10899 ft 269 kts 13°
2026-05-04 19:30 51.36025 6.66971 10516 ft 267 kts 13°
2026-05-04 19:30 51.37804 6.67624 10156 ft 265 kts 13°
2026-05-04 19:30 51.39592 6.68279 9792 ft 263 kts 13°
2026-05-04 19:30 51.41368 6.68932 9393 ft 260 kts 13°
2026-05-04 19:31 51.43120 6.69580 8997 ft 258 kts 13°
2026-05-04 19:31 51.44866 6.70229 8605 ft 256 kts 13°
2026-05-04 19:31 51.46602 6.70878 8219 ft 255 kts 13°
2026-05-04 19:31 51.48325 6.71525 7837 ft 254 kts 13°
2026-05-04 19:32 51.50046 6.72194 7459 ft 255 kts 17°
2026-05-04 19:32 51.51559 6.73606 7090 ft 254 kts 48°
2026-05-04 19:32 51.52541 6.75903 6960 ft 246 kts 62°
2026-05-04 19:32 51.53366 6.78328 6968 ft 248 kts 63°
2026-05-04 19:33 51.54176 6.80770 6971 ft 248 kts 63°
2026-05-04 19:33 51.54986 6.83227 6970 ft 248 kts 63°
2026-05-04 19:33 51.55793 6.85678 6970 ft 248 kts 63°
2026-05-04 19:33 51.56602 6.88134 6969 ft 249 kts 63°
2026-05-04 19:34 51.57376 6.90610 6967 ft 248 kts 72°
2026-05-04 19:34 51.57537 6.93307 6969 ft 243 kts 103°
2026-05-04 19:34 51.56817 6.95705 6969 ft 239 kts 134°
2026-05-04 19:34 51.55618 6.97477 6975 ft 239 kts 142°
2026-05-04 19:35 51.54321 6.99152 6973 ft 239 kts 143°
2026-05-04 19:35 51.53018 7.00806 6973 ft 239 kts 143°
2026-05-04 19:35 51.51793 7.02616 6972 ft 241 kts 126°
2026-05-04 19:35 51.51219 7.05128 6974 ft 245 kts 95°
2026-05-04 19:36 51.51539 7.07810 6976 ft 249 kts 64°
2026-05-04 19:36 51.52486 7.10167 6878 ft 255 kts 54°
2026-05-04 19:36 51.53552 7.12454 6504 ft 257 kts 54°
2026-05-04 19:36 51.54639 7.14735 6128 ft 257 kts 53°
2026-05-04 19:37 51.55590 7.17149 5733 ft 255 kts 72°
2026-05-04 19:37 51.55760 7.19928 5355 ft 251 kts 103°
2026-05-04 19:37 51.55046 7.22411 4971 ft 245 kts 134°
2026-05-04 19:37 51.53654 7.23863 4593 ft 239 kts 168°
2026-05-04 19:38 51.52035 7.23786 4212 ft 235 kts 201°
2026-05-04 19:38 51.50727 7.22270 3836 ft 235 kts 230°
2026-05-04 19:38 51.49735 7.20172 3454 ft 236 kts 233°
2026-05-04 19:38 51.48759 7.18040 3085 ft 237 kts 233°
2026-05-04 19:39 51.47791 7.15964 2996 ft 227 kts 232°
2026-05-04 19:39 51.46842 7.13943 3012 ft 227 kts 232°
2026-05-04 19:39 51.45894 7.11924 3015 ft 227 kts 232°
2026-05-04 19:39 51.44959 7.09935 3008 ft 226 kts 232°
2026-05-04 19:40 51.43998 7.07890 3008 ft 227 kts 232°
2026-05-04 19:40 51.43069 7.05916 3006 ft 222 kts 232°
2026-05-04 19:40 51.42171 7.04007 3009 ft 207 kts 232°
2026-05-04 19:40 51.41325 7.02212 3022 ft 191 kts 232°
2026-05-04 19:41 51.40561 7.00592 3026 ft 180 kts 231°
2026-05-04 19:41 51.39806 6.98994 3004 ft 176 kts 231°
2026-05-04 19:41 51.39083 6.97461 3006 ft 175 kts 231°
2026-05-04 19:41 51.38339 6.95886 2917 ft 175 kts 231°
2026-05-04 19:42 51.37621 6.94368 2727 ft 175 kts 231°
2026-05-04 19:42 51.37129 6.93327 2572 ft 174 kts 231°
2026-05-04 19:42 51.36163 6.91285 2279 ft 173 kts 231°
2026-05-04 19:42 51.35455 6.89791 2046 ft 172 kts 231°
2026-05-04 19:43 51.34741 6.88283 1829 ft 168 kts 231°
2026-05-04 19:43 51.34065 6.86856 1621 ft 153 kts 231°
2026-05-04 19:43 51.33637 6.85955 1469 ft 149 kts 231°
2026-05-04 19:43 51.33018 6.84649 1274 ft 147 kts 230°
2026-05-04 19:44 51.32404 6.83357 1062 ft 145 kts 231°
2026-05-04 19:44 51.31793 6.82070 858 ft 145 kts 231°
2026-05-04 19:44 51.31189 6.80797 672 ft 143 kts 230°
2026-05-04 19:44 51.30589 6.79539 467 ft 142 kts 230°
2026-05-04 19:45 51.29985 6.78274 290 ft 145 kts 232°
2026-05-04 19:45 51.29373 6.76973 135 ft 140 kts 231°
2026-05-04 19:45 51.28935 6.76052 127 ft 63 kts 233°
2026-05-04 19:45 51.28763 6.75761 126 ft 28 kts 214°
2026-05-04 19:46 51.28607 6.75678 123 ft 19 kts 180°
2026-05-04 19:46 51.28555 6.75694 120 ft 0 kts 162°
2026-05-04 19:47 51.28552 6.75695 121 ft 4 kts 162°
2026-05-04 19:48 51.28494 6.75738 124 ft 7 kts 148°
2026-05-04 19:48 51.28477 6.75758 123 ft 0 kts 142°
2026-05-04 19:52 51.28476 6.75759 123 ft 1 kts 142°
2026-05-04 19:52 51.28443 6.75799 122 ft 5 kts 143°
2026-05-04 19:52 51.28440 6.75802 121 ft 0 kts 142°
2026-05-04 19:53 51.28439 6.75803 126 ft 0 kts 142°
2026-05-04 19:54 51.28433 6.75811 121 ft 4 kts 142°
2026-05-04 19:54 51.28424 6.75822 124 ft 0 kts 142°
2026-05-04 19:55 51.28415 6.75832 125 ft 5 kts 142°
2026-05-04 19:55 51.28401 6.75850 123 ft 0 kts 142°
2026-05-04 19:55 51.28394 6.75859 124 ft 0 kts 142°
2026-05-04 19:57 51.28391 6.75863 124 ft 4 kts 142°
2026-05-04 19:57 51.28341 6.75925 125 ft 11 kts 142°
2026-05-04 19:57 51.28283 6.75991 127 ft 10 kts 154°
2026-05-04 19:57 51.28222 6.75970 126 ft 8 kts 205°
2026-05-04 19:58 51.28187 6.75944 126 ft 3 kts 205°
2026-05-04 19:58 51.28173 6.75934 128 ft 8 kts 204°
2026-05-04 19:58 51.28120 6.75895 126 ft 3 kts 204°
2026-05-04 19:59 51.28085 6.75871 125 ft 15 kts 204°
2026-05-04 19:59 51.27998 6.75823 129 ft 12 kts 181°
2026-05-04 20:00 51.27920 6.75818 129 ft 11 kts 182°
2026-05-04 20:00 51.27820 6.75814 127 ft 15 kts 182°
2026-05-04 20:00 51.27722 6.75810 130 ft 13 kts 181°
2026-05-04 20:00 51.27641 6.75814 126 ft 10 kts 166°
2026-05-04 20:01 51.27611 6.75835 126 ft 2 kts 153°
2026-05-04 20:01 51.27606 6.75841 127 ft 3 kts 139°
2026-05-04 20:01 51.27612 6.75870 126 ft 1 kts 52°
2026-05-04 20:01 51.27618 6.75882 130 ft 2 kts 52°
2026-05-04 20:02 51.27626 6.75902 127 ft 5 kts 63°
2026-05-04 20:02 51.27630 6.75919 126 ft 0 kts 69°
2026-05-04 20:02 51.27630 6.75922 126 ft 0 kts 68°
2026-05-04 20:02 51.27630 6.75923 125 ft 1 kts 69°
2026-05-04 20:05 51.27633 6.75935 130 ft 0 kts 67°